FW6612 Weather Reports


time (UTC)temp
F
wind
direction
speed
knots
gust
knots
rain 1hr
in
rain 24hr
in
rain mn
in
humidity
%
barometer
mb
20260502170520 87 118 8.7 11.3 0.00 0.00 0.00 29 1020.5
20260502163525 88 117 5.2 7.0 0.00 0.00 0.00 28 1020.8
20260502162515 86 131 6.1 7.0 0.00 0.00 0.00 29 1020.3
20260502161523 88 112 6.1 8.7 0.00 0.00 0.00 28 1020.4
20260502160530 86 124 6.1 8.7 0.00 0.00 0.00 29 1020.8
20260502151532 85 104 4.3 7.0 0.00 0.00 0.00 27 1020.2
20260502150521 85 110 3.5 4.3 0.00 0.00 0.00 27 1020.2
20260502130524 69 330 0.9 1.7 0.00 0.00 0.00 32 1018.9
20260502123530 67 326 0.9 1.7 0.00 0.00 0.00 34 1018.6
20260502122519 68 317 0.9 1.7 0.00 0.00 0.00 34 1018.2
20260502121527 66 356 0.9 1.7 0.00 0.00 0.00 35 1018.3
20260502120517 65 53 0.9 0.9 0.00 0.00 0.00 35 1018.2
20260502115605 65 68 0.9 0.9 0.00 0.00 0.00 35 1018.2
20260502113522 67 0.0 0.0 0.00 0.00 0.00 34 1017.8
20260502112530 67 108 0.9 1.7 0.00 0.00 0.00 34 1018.0
20260502111539 68 106 0.9 1.7 0.00 0.00 0.00 32 1017.5
20260502110527 70 349 1.7 2.6 0.00 0.00 0.00 30 1017.8
20260502105537 70 33 1.7 1.7 0.00 0.00 0.00 30 1018.1
20260502104525 70 352 1.7 2.6 0.00 0.00 0.00 30 1017.8
20260502103533 71 360 1.7 3.5 0.00 0.00 0.00 30 1017.5
20260502102522 71 352 2.6 3.5 0.00 0.00 0.00 30 1018.0
20260502101530 71 21 2.6 3.5 0.00 0.00 0.00 30 1016.8
20260502100519 71 1 1.7 2.6 0.00 0.00 0.00 30 1017.5
20260502090530 72 345 1.7 3.5 0.00 0.00 0.00 27 1017.2
20260502071525 74 342 1.7 2.6 0.00 0.00 0.00 28 1016.4
20260502070515 74 326 0.9 1.7 0.00 0.00 0.00 28 1016.7
20260502065523 75 255 0.9 1.7 0.00 0.00 0.00 27 1016.2
20260502064531 75 165 1.7 2.6 0.00 0.00 0.00 27 1016.0
20260502063520 75 161 1.7 2.6 0.00 0.00 0.00 26 1016.5
20260502062528 77 186 1.7 2.6 0.00 0.00 0.00 24 1015.8
20260502061538 78 187 1.7 2.6 0.00 0.00 0.00 24 1015.7
20260502060526 78 211 2.6 3.5 0.00 0.00 0.00 25 1015.8
20260502055515 78 213 3.5 5.2 0.00 0.00 0.00 25 1015.6
20260502054523 78 222 3.5 5.2 0.00 0.00 0.00 25 1015.6
20260502053531 78 218 4.3 5.2 0.00 0.00 0.00 25 1015.9
20260502052520 79 230 4.3 5.2 0.00 0.00 0.00 25 1015.9
20260502051528 79 228 4.3 5.2 0.00 0.00 0.00 25 1015.3
20260502050518 79 239 3.5 5.2 0.00 0.00 0.00 25 1015.2
20260502045525 79 246 3.5 4.3 0.00 0.00 0.00 25 1015.6
20260502044535 79 256 2.6 4.3 0.00 0.00 0.00 25 1015.9
20260502043523 80 268 2.6 2.6 0.00 0.00 0.00 25 1015.1
20260502042531 80 235 2.6 2.6 0.00 0.00 0.00 25 1015.1
20260502041520 80 232 1.7 2.6 0.00 0.00 0.00 24 1015.2
20260502040529 81 210 1.7 3.5 0.00 0.00 0.00 24 1015.4
20260502035517 81 198 1.7 2.6 0.00 0.00 0.00 24 1014.8
20260502034526 82 210 1.7 1.7 0.00 0.00 0.00 23 1015.0
20260502033515 82 221 1.7 1.7 0.00 0.00 0.00 22 1015.1
20260502032523 83 206 1.7 1.7 0.00 0.00 0.00 22 1014.8
20260502031551 83 217 1.7 2.6 0.00 0.00 0.00 22 1014.7
20260502030520 84 225 2.6 4.3 0.00 0.00 0.00 22 1014.8
20260502025528 84 239 2.6 3.5 0.00 0.00 0.00 22 1013.8
20260502024518 85 230 2.6 3.5 0.00 0.00 0.00 22 1013.9
20260502023526 85 224 2.6 4.3 0.00 0.00 0.00 22 1013.2
20260502022515 86 231 3.5 6.1 0.00 0.00 0.00 22 1014.2
20260502021523 86 228 4.3 6.1 0.00 0.00 0.00 22 1013.6
20260502020531 87 215 4.3 5.2 0.00 0.00 0.00 22 1014.0
20260502015520 88 221 6.1 9.6 0.00 0.00 0.00 20 1013.7
20260502014528 89 232 6.1 7.8 0.00 0.00 0.00 20 1013.4
20260502013517 90 230 3.5 5.2 0.00 0.00 0.00 20 1014.1
20260502012525 91 201 4.3 7.0 0.00 0.00 0.00 20 1013.8
20260502011533 92 199 4.3 7.8 0.00 0.00 0.00 20 1013.8
20260502010522 92 221 4.3 7.0 0.00 0.00 0.00 20 1013.8
20260502005530 93 197 4.3 6.1 0.00 0.00 0.00 19 1014.3
20260502004519 94 221 3.5 5.2 0.00 0.00 0.00 18 1013.6
20260502003528 93 170 3.5 4.3 0.00 0.00 0.00 20 1014.2
20260502002517 93 200 3.5 5.2 0.00 0.00 0.00 21 1013.6
20260502001525 95 141 3.5 5.2 0.00 0.00 0.00 20 1013.9
20260502000533 94 157 3.5 7.0 0.00 0.00 0.00 22 1014.0
20260501235522 95 128 2.6 4.3 0.00 0.00 0.00 20 1014.0
20260501234530 96 152 4.3 6.1 0.00 0.00 0.00 22 1013.9
20260501233519 94 146 2.6 5.2 0.00 0.00 0.00 22 1013.9
20260501232527 94 164 3.5 4.3 0.00 0.00 0.00 22 1014.5
20260501231516 93 144 3.5 5.2 0.00 0.00 0.00 22 1014.9
20260501230524 95 232 3.5 7.0 0.00 0.00 0.00 22 1014.8
20260501225532 94 231 2.6 6.1 0.00 0.00 0.00 22 1014.8
20260501224521 94 198 2.6 4.3 0.00 0.00 0.00 22 1014.9
20260501223549 94 230 2.6 6.1 0.00 0.00 0.00 22 1014.6
20260501222518 92 245 5.2 8.7 0.00 0.00 0.00 22 1015.2
20260501221526 92 202 3.5 4.3 0.00 0.00 0.00 22 1014.7
20260501220516 92 187 4.3 6.1 0.00 0.00 0.00 23 1015.6
20260501215523 91 208 4.3 6.1 0.00 0.00 0.00 24 1015.0
20260501214531 91 181 4.3 7.0 0.00 0.00 0.00 24 1015.8
20260501213521 92 183 3.5 4.3 0.00 0.00 0.00 24 1015.7
20260501212529 92 291 4.3 8.7 0.00 0.00 0.00 24 1016.2
20260501211518 91 168 3.5 5.2 0.00 0.00 0.00 25 1016.0
20260501210526 92 270 3.5 6.1 0.00 0.00 0.00 23 1016.1
20260501205515 91 181 4.3 6.1 0.00 0.00 0.00 24 1016.2
20260501204543 92 210 4.3 6.1 0.00 0.00 0.00 23 1015.8
20260501203531 90 208 2.6 5.2 0.00 0.00 0.00 24 1016.3
20260501202541 89 231 4.3 7.0 0.00 0.00 0.00 24 1016.5
20260501201529 89 260 3.5 5.2 0.00 0.00 0.00 24 1017.2
20260501200538 88 262 4.3 7.0 0.00 0.00 0.00 25 1016.4
20260501195526 88 223 6.1 7.8 0.00 0.00 0.00 27 1016.7
20260501194515 87 224 5.2 8.7 0.00 0.00 0.00 27 1017.3
20260501193603 89 197 3.5 7.8 0.00 0.00 0.00 27 1017.5
20260501192531 88 205 4.3 6.1 0.00 0.00 0.00 28 1017.3
20260501191521 88 184 4.3 6.1 0.00 0.00 0.00 28 1017.6
20260501190529 87 195 3.5 5.2 0.00 0.00 0.00 29 1017.6
20260501185518 87 177 3.5 5.2 0.00 0.00 0.00 29 1017.5
20260501184526 87 212 1.7 3.5 0.00 0.00 0.00 28 1017.1
20260501183515 86 130 1.7 3.5 0.00 0.00 0.00 29 1017.6
20260501182523 86 227 5.2 6.1 0.00 0.00 0.00 29 1018.5
20260501181531 85 195 1.7 3.5 0.00 0.00 0.00 30 1018.1
20260501180540 84 241 4.3 7.0 0.00 0.00 0.00 30 1018.6
20260501175528 83 216 3.5 5.2 0.00 0.00 0.00 31 1018.9
20260501174518 82 263 2.6 4.3 0.00 0.00 0.00 32 1019.1
20260501173526 84 165 2.6 3.5 0.00 0.00 0.00 32 1018.2
20260501172535 83 158 2.6 4.3 0.00 0.00 0.00 33 1019.0